RH
93 90 89 92 93 86 85 81 82 80 77 78 76 75 76 77 77 76 76 75 73 72 75 76 76 76 81 76 65 48 52 49 66 71 67 65 79 63 76 74 73 80 60 56 49 46 40
91 88 94 93 86 81 79 81 80 81 77 76 76 76 77 79 77 76 75 73 69 70 70 76 82 79 84 87 51 49 49 50 49 70 68 62 68 58 63 64 76 67 67 55 48 46 43
88 93 91 87 82 82 82 81 81 79 77 76 76 78 80 81 78 72 74 71 70 68 62 60 71 78 67 66 50 48 49 52 50 49 74 66 57 56 54 67 55 61 79 72 63 57 52
91 90 86 85 83 83 82 82 82 80 77 77 78 80 83 83 78 73 73 69 61 52 57 45 77 70 68 77 58 55 55 44 39 49 55 66 61 61 59 51 62 74 77 86 71 59 56
87 89 85 84 84 83 82 83 83 81 80 79 80 83 84 80 76 74 64 56 46 48 45 52 48 72 94 59 57 56 64 51 38 35 46 69 73 78 72 85 86 76 85 89 80 64 60
91 86 85 85 85 85 84 84 83 82 81 82 84 86 73 67 69 67 57 43 30 42 41 36 37 60 46 40 41 64 51 47 41 53 66 66 96 95 94 95 95 95 90 67 92 76 69
93 84 85 87 87 86 86 85 84 82 82 84 87 78 56 27 24 50 50 38 49 37 57 57 53 56 43 31 32 47 47 45 44 50 100 73 93 99 90 90 72 58 95 80 57 65 78
93 89 87 89 87 87 86 85 84 84 84 85 87 88 83 23 18 42 40 47 59 70 83 50 45 43 26 25 61 40 44 55 68 79 57 98 96 65 80 68 83 86 98 88 50 58 58
89 88 89 90 89 87 88 87 86 86 87 87 87 88 70 33 26 37 32 44 61 65 83 32 24 30 27 28 56 48 50 55 70 80 68 72 95 76 90 80 94 95 95 97 72 43 46
89 90 90 87 88 88 87 87 87 87 88 87 90 68 33 43 35 40 29 43 60 66 92 28 27 25 26 32 38 41 40 66 79 94 81 56 38 91 100 99 96 96 92 73 61 58 96
90 91 90 90 87 87 87 88 87 86 88 87 90 31 32 39 38 35 36 46 62 70 84 24 27 18 25 24 32 38 32 59 95 75 98 74 81 94 96 100 100 98 78 75 73 78 73
91 91 90 89 88 89 89 88 87 84 87 87 52 25 35 34 36 39 44 48 71 69 85 36 31 32 32 22 24 32 34 35 62 64 81 93 91 73 80 85 96 90 100 99 98 97 97
92 92 88 86 88 88 90 89 88 86 86 83 29 32 37 37 44 37 40 46 47 63 36 43 42 34 25 30 28 43 53 63 76 88 77 75 95 95 83 78 94 99 98 97 97 97 94
98 86 87 91 85 89 90 89 88 87 87 61 32 34 29 30 27 27 27 27 54 57 45 36 39 33 31 36 35 35 52 70 61 66 90 94 89 95 92 98 98 94 83 90 95 95 96
86 93 90 90 89 90 90 89 89 80 82 45 40 36 31 31 30 22 28 60 88 72 43 50 43 47 40 44 42 42 60 68 67 62 91 94 76 87 96 98 100 96 98 93 94 63 92
89 86 90 86 89 90 88 90 89 83 70 46 62 37 34 31 24 23 38 54 56 40 38 42 65 49 58 60 66 68 72 66 66 54 47 75 94 95 93 62 85 100 100 98 97 95 92
91 90 91 90 91 92 92 91 90 85 62 36 44 36 33 29 21 31 57 53 41 35 38 50 58 59 57 63 75 63 77 69 56 58 51 71 86 90 66 93 95 89 94 95 95 95 87
93 94 92 91 92 92 91 91 90 87 74 44 47 43 36 27 37 38 49 41 36 43 40 44 45 52 67 60 75 69 63 67 50 55 77 64 85 95 96 88 86 74 96 96 96 98 97
90 91 94 92 92 93 91 90 89 81 81 80 52 41 31 30 52 51 40 46 37 51 49 53 55 51 57 63 82 71 60 54 53 64 78 75 75 83 89 82 48 66 86 95 96 97 96
91 90 94 94 93 92 90 90 82 69 52 69 54 50 44 42 38 48 58 58 53 44 52 48 50 52 67 65 57 76 71 60 57 61 53 64 74 80 82 77 54 70 67 93 89 94 95
92 90 92 92 94 90 92 90 87 45 56 56 62 64 66 68 54 46 55 62 58 67 48 51 67 70 94 98 85 77 76 76 62 61 67 81 83 67 42 45 46 62 65 90 94 94 95
93 90 96 92 90 91 92 88 93 48 55 64 78 86 83 69 51 47 62 74 65 68 61 73 88 76 84 94 96 96 96 87 91 85 82 78 86 61 49 35 49 74 72 71 85 86 86
96 95 93 93 94 94 94 94 93 65 62 63 63 70 89 60 58 67 78 77 72 60 59 61 79 83 85 86 79 76 70 75 79 85 91 90 97 87 74 42 38 76 90 89 88 87 94
93 98 93 94 93 92 95 91 94 82 75 68 78 71 98 85 74 69 76 65 70 64 80 76 74 85 68 60 67 63 75 78 66 58 76 94 99 88 92 64 90 94 69 68 93 92 88
98 99 97 90 91 94 92 95 95 95 78 77 78 75 82 96 80 68 80 71 75 70 71 71 65 66 66 80 89 81 70 52 46 51 69 91 96 97 94 91 88 82 87 92 94 94 95
95 98 94 90 93 94 94 95 92 96 81 82 84 83 90 89 97 89 85 71 90 88 80 58 59 64 79 96 80 74 77 64 75 70 54 77 90 94 87 83 100 96 91 76 91 94 94
99 98 97 95 94 95 91 97 93 92 72 91 92 80 80 90 87 69 88 91 84 87 94 79 85 85 71 84 84 79 85 64 88 90 92 85 85 81 85 93 96 95 90 59 86 95 94
98 94 94 94 94 94 93 98 95 95 84 82 95 76 90 82 82 66 57 85 88 92 97 84 89 85 89 91 92 88 88 86 93 69 83 94 99 98 90 87 94 90 70 83 96 96 96
95 95 97 96 94 93 95 97 96 97 95 79 84 84 84 82 86 83 77 74 77 79 80 86 87 91 96 98 94 96 93 88 79 90 52 93 94 100 96 98 92 89 98 96 96 97 96
Wind_Speed
23 23 23 24 25 25 26 27 28 29 29 30 30 31 33 35 36 36 36 37 36 35 34 31 25 18 10 12 16 19 17 8 8 33 31 26 26 27 28 22 20 30 16 25 23 23 18
22 22 23 23 24 26 27 28 28 28 29 31 32 33 34 34 35 36 35 35 37 35 31 26 19 14 12 19 13 19 8 7 8 24 26 25 18 21 20 24 27 11 25 20 21 26 21
22 22 22 24 25 26 27 27 28 29 31 33 34 35 34 34 35 35 33 36 35 38 29 26 16 10 13 17 16 17 10 24 19 20 21 31 32 21 18 24 25 28 18 24 27 20 10
23 23 24 24 26 26 27 28 29 30 32 34 36 35 35 35 35 36 33 37 41 27 24 28 6 7 5 24 17 20 15 23 14 21 17 30 31 24 21 19 12 29 24 25 23 28 19
23 23 24 25 26 27 28 28 30 31 33 35 36 35 36 35 36 33 32 38 28 16 26 6 7 2 3 19 25 24 19 20 24 20 26 14 22 23 21 18 20 18 25 27 12 26 16
22 23 24 25 26 27 28 30 31 32 34 35 37 37 37 38 37 29 33 28 19 6 26 6 23 2 6 16 24 24 24 23 15 7 11 15 9 12 14 17 18 15 23 21 16 15 25
22 24 25 24 27 28 29 30 32 34 36 37 38 41 36 42 38 27 29 22 7 5 11 8 10 6 17 21 17 17 22 22 9 7 8 18 10 14 28 24 20 14 12 21 19 17 12
22 23 24 25 27 29 30 31 33 34 35 37 39 40 33 43 31 21 21 9 8 5 7 11 2 5 19 22 12 16 25 10 8 12 11 8 20 25 16 19 27 22 10 14 12 20 19
22 23 24 26 28 29 31 32 33 34 35 37 40 39 32 39 20 18 20 20 10 1 4 7 17 8 17 15 0 12 14 12 11 13 16 17 8 15 15 18 25 23 25 11 11 10 11
21 22 24 27 28 30 32 34 34 35 36 40 38 32 37 33 8 26 11 23 9 3 3 9 23 13 15 2 9 6 9 3 4 10 11 13 13 9 7 14 18 22 20 23 12 12 5
22 22 25 27 29 30 32 34 35 36 40 42 37 25 36 28 21 16 24 25 3 4 3 12 21 20 16 16 10 10 13 3 6 13 6 2 10 9 8 4 5 3 16 19 16 7 6
21 23 25 28 29 30 32 34 36 39 41 42 36 23 34 27 23 27 33 20 3 2 6 12 20 25 17 15 14 11 11 15 2 8 8 6 1 4 7 7 5 9 4 8 7 7 10
21 23 26 28 29 30 31 33 35 39 43 43 24 22 30 23 18 41 37 5 2 8 17 16 25 24 13 18 19 11 14 16 15 9 14 9 6 4 4 5 8 3 8 3 6 8 4
21 23 24 26 29 30 31 33 36 39 44 43 14 17 31 31 37 39 16 10 10 14 16 20 19 17 14 22 17 13 15 14 13 14 10 8 5 12 8 4 4 5 4 2 1 2 4
21 21 23 25 26 28 30 33 36 42 45 33 12 10 32 37 34 25 8 11 7 12 14 17 17 13 14 20 15 15 10 13 10 16 10 10 5 6 7 4 5 1 3 3 2 4 2
20 21 23 24 26 27 29 32 36 41 45 24 11 7 29 35 22 18 8 17 9 15 14 14 14 11 14 18 15 16 16 19 16 18 11 10 5 7 6 7 8 5 7 3 2 4 1
18 20 22 24 25 27 29 31 33 39 43 20 7 2 24 29 11 7 12 11 10 15 15 12 16 10 14 16 14 12 13 8 19 20 10 9 3 7 5 8 14 8 5 4 1 3 3
18 19 22 22 24 26 29 31 33 35 38 19 7 3 19 23 10 7 11 15 13 14 13 12 13 10 13 14 9 9 13 13 14 18 10 7 3 4 4 5 7 14 9 5 3 4 2
17 19 20 22 23 25 27 30 32 34 29 13 4 2 10 18 8 10 10 15 10 13 12 12 12 10 15 9 6 8 13 11 12 16 12 7 6 6 2 2 9 8 16 11 4 2 5
16 17 19 20 22 23 26 28 30 32 23 14 3 4 4 6 7 11 9 11 14 8 6 12 9 9 11 6 12 5 14 7 10 15 20 8 5 5 4 3 6 12 18 15 11 4 3
15 16 17 19 20 21 23 25 29 30 20 11 4 3 2 5 8 8 10 10 13 13 6 12 7 14 10 4 8 9 8 7 9 15 9 4 4 4 4 5 8 14 16 16 14 13 7
15 16 16 17 18 19 21 23 25 27 15 10 3 3 4 2 6 7 12 9 15 14 7 9 9 15 8 3 4 9 7 4 3 8 7 8 4 5 1 5 9 14 17 15 13 13 7
13 14 15 15 16 17 18 20 21 24 17 7 5 3 2 3 6 5 6 8 12 13 4 8 10 9 6 5 10 11 8 7 9 7 5 6 4 4 3 5 2 6 14 12 7 14 9
13 13 13 14 14 15 16 18 19 19 16 8 6 4 2 3 4 4 6 8 13 12 6 5 4 3 6 14 13 4 6 9 9 4 3 3 5 1 4 5 5 4 11 6 9 14 14
12 12 12 12 13 14 14 15 16 15 12 10 8 5 3 3 2 4 8 6 7 9 6 1 5 5 9 8 3 4 2 2 1 2 2 4 0 3 2 3 6 6 8 6 5 7 12
11 11 11 11 12 12 13 14 14 15 10 6 8 6 4 2 2 3 5 6 3 7 6 4 10 14 4 2 2 3 3 3 5 9 9 5 3 3 4 4 3 2 8 10 6 2 13
9 10 10 10 10 11 11 13 14 14 11 6 4 6 0 2 1 3 2 2 2 4 3 4 8 7 6 4 3 3 2 2 4 5 6 5 4 3 5 2 2 6 13 9 3 4 11
8 8 9 8 9 9 11 11 10 14 15 5 2 8 3 1 3 2 3 2 2 1 3 5 4 4 4 6 3 3 3 2 1 0 3 2 2 3 4 5 3 12 5 5 4 4 6
7 7 8 7 7 9 10 9 9 11 14 12 3 10 2 3 2 3 4 2 1 3 1 4 2 3 2 2 3 3 3 3 3 2 4 2 3 2 4 1 1 2 3 2 4 3 5
Wind_Direction
18 15 13 8 6 4 0 358 356 354 352 352 350 346 343 341 339 336 332 327 325 323 319 310 298 292 270 232 243 259 338 336 316 196 206 204 220 204 216 208 206 224 218 228 252 261 263
17 14 7 8 5 3 1 359 357 356 356 353 350 347 344 342 340 336 332 328 325 324 321 325 309 267 238 257 272 279 263 0 306 201 214 214 223 220 217 225 212 195 227 234 221 234 248
16 9 10 7 5 2 1 360 359 358 356 354 350 346 343 341 338 335 328 326 323 323 314 319 303 240 243 252 271 287 261 311 294 275 223 225 220 207 230 214 225 226 222 223 234 237 261
11 13 8 7 4 4 1 1 360 358 356 353 349 344 340 337 337 336 330 327 328 327 323 316 313 189 231 16 19 343 336 312 294 249 258 226 236 247 228 234 213 223 228 228 212 228 234
11 8 7 5 5 2 2 1 359 357 354 351 347 342 339 338 338 338 336 334 332 344 345 73 1 202 29 344 350 328 331 309 297 283 248 222 239 230 241 234 224 214 221 219 209 208 194
9 7 6 4 3 2 1 0 358 355 352 349 346 343 340 339 341 343 343 349 354 345 11 3 8 131 3 349 339 15 351 332 287 309 277 215 230 198 221 219 218 199 214 213 209 201 202
7 7 2 3 3 2 1 359 356 354 350 348 347 344 344 347 348 348 350 6 16 9 5 356 341 347 323 332 339 349 346 330 292 250 267 223 225 225 206 222 237 244 225 215 208 196 186
9 2 1 4 3 1 359 357 355 352 349 348 345 344 340 343 345 356 354 30 15 268 317 301 287 291 346 326 2 350 357 347 321 278 245 244 224 228 230 220 220 221 232 213 219 196 199
3 2 5 4 3 360 357 355 352 351 350 348 345 344 345 348 346 346 347 19 348 273 276 9 21 359 337 348 333 353 349 331 299 280 269 262 251 232 227 219 215 230 223 213 200 220 208
5 6 5 5 1 358 356 353 352 350 349 347 346 348 354 353 8 329 350 350 347 183 250 32 13 357 345 333 10 53 336 350 319 318 309 265 271 216 254 233 212 210 206 218 222 175 193
7 5 5 4 1 358 355 352 350 350 348 345 347 356 355 356 320 326 325 329 349 173 23 344 357 329 349 13 357 18 24 225 290 311 268 79 11 8 265 252 154 212 187 205 212 214 194
7 5 4 3 0 357 355 352 349 348 347 346 351 6 357 349 342 324 326 323 176 289 8 4 340 337 6 7 358 10 20 13 145 308 343 340 309 25 336 302 175 150 91 218 205 203 212
7 6 4 2 359 356 356 353 349 347 346 348 359 15 1 358 337 335 328 304 287 32 352 347 336 329 357 9 350 38 15 25 29 341 352 326 21 356 47 288 128 252 122 160 185 212 186
8 5 4 1 358 356 355 354 350 349 348 349 14 21 11 3 358 349 353 59 57 5 359 335 333 347 5 12 338 22 20 23 21 9 324 351 333 1 345 2 357 236 196 141 211 122 113
8 3 3 3 359 358 355 354 351 349 350 352 17 18 8 357 1 18 33 47 26 359 336 341 344 353 359 0 338 359 36 21 18 2 359 359 335 345 14 340 339 348 207 328 42 187 84
6 4 3 3 2 360 358 356 352 350 350 3 348 326 1 354 8 21 41 54 27 15 354 6 13 353 1 349 352 359 0 29 359 354 5 348 290 8 16 10 11 8 327 138 179 170 214
5 3 2 3 2 1 358 356 356 353 352 9 328 52 349 354 359 40 40 32 7 13 9 11 5 342 2 342 355 18 21 11 0 356 14 5 338 328 18 10 20 3 9 331 93 67 151
3 3 2 2 1 3 360 357 357 358 353 13 324 49 352 356 36 19 36 11 21 5 8 11 17 354 354 337 2 15 11 12 359 357 359 345 321 316 76 176 101 38 2 1 347 97 139
7 3 1 1 3 2 2 359 359 359 3 344 354 50 20 22 26 21 14 11 20 19 10 358 13 14 347 359 355 18 352 349 357 5 3 321 331 335 52 273 14 19 7 349 315 224 12
4 2 0 2 3 2 2 0 360 2 11 1 346 2 359 34 12 38 1 4 2 15 340 4 12 4 2 352 348 356 356 340 12 359 4 2 27 26 48 359 343 11 6 8 11 38 343
2 358 1 1 1 3 3 3 1 7 14 12 7 57 24 351 357 32 4 359 357 6 348 12 354 9 3 331 332 6 351 316 339 352 358 43 10 30 31 3 42 32 16 13 23 360 46
360 359 359 2 0 4 4 4 2 11 23 51 33 1 337 315 334 12 10 2 1 355 343 4 0 347 332 35 347 314 333 329 309 326 2 347 324 6 261 36 74 43 21 16 15 5 24
358 359 357 1 2 4 5 6 4 15 35 52 28 11 321 317 360 8 1 331 352 357 334 358 340 333 327 340 320 288 270 267 277 332 337 3 346 352 322 6 63 23 6 6 38 22 349
357 356 356 2 5 7 7 13 9 15 39 43 31 345 337 327 21 2 1 350 342 353 320 302 346 10 280 322 298 229 234 253 268 41 105 325 342 345 287 318 58 91 16 13 68 34 8
355 352 357 1 4 7 9 9 12 9 29 39 22 16 7 302 357 350 346 325 329 345 333 21 342 311 302 306 318 338 167 302 127 81 345 141 238 329 32 19 123 26 11 354 345 42 4
353 349 355 360 4 8 9 10 10 11 16 39 20 22 71 325 48 294 301 27 351 337 331 2 353 323 314 266 330 359 52 316 334 339 348 322 123 116 349 73 45 339 326 306 293 80 0
349 348 353 359 5 7 11 10 11 12 11 30 30 26 219 314 143 315 18 316 332 315 278 324 343 337 358 339 351 21 355 358 356 348 326 338 346 53 353 46 78 351 315 306 26 326 348
347 350 354 0 8 13 10 14 20 19 15 28 27 12 12 289 286 279 10 19 336 360 357 305 347 355 348 21 16 335 355 309 338 109 299 40 331 9 342 30 0 359 2 66 317 356 358
345 344 3 6 3 6 10 8 7 4 8 17 11 345 13 252 282 296 303 251 258 166 1 323 196 9 323 332 17 326 330 341 315 315 1 25 156 210 133 235 96 29 67 55 6 357 2